Wind_Speed
12 13 12 11 8 7 5 4 3 4 5 5 5 5 5 5 4 4 5 6 7 7 8 8 8 8 8 8 8 8 9 10 12 14 15 16 16 15 14 13 11 11 10 10 10 9 8 8 7 7 7 7 6 6 7 7 7 7 6 6 5 5 5 4 4 4 4 4 4 5 5 5 6 6 6 7 7 8 9 9 10 10 11 11 12
12 12 11 9 8 6 5 4 4 5 6 6 6 6 5 5 4 5 6 7 8 8 8 8 8 8 8 8 8 9 10 11 13 14 15 15 14 14 13 12 11 10 10 10 9 8 8 8 8 8 7 7 7 7 7 7 7 6 5 5 4 4 3 3 3 3 3 3 4 5 5 5 5 5 6 7 7 8 8 9 10 11 11 12 12
14 11 9 8 7 6 6 5 5 6 7 7 6 6 5 5 5 6 7 7 7 7 7 7 8 8 8 8 8 9 10 11 13 14 14 14 14 13 12 10 10 10 10 10 8 8 8 8 8 8 8 8 7 7 7 6 6 5 4 3 4 4 4 4 4 4 4 4 4 5 5 5 5 5 6 7 7 8 8 10 10 11 11 11 12
14 11 9 8 8 7 7 6 6 7 7 7 6 6 6 5 6 6 7 7 7 7 7 7 8 7 7 8 9 10 11 12 12 13 13 13 13 12 10 9 9 10 9 9 8 7 8 8 7 7 7 7 7 7 6 5 4 3 3 3 4 5 5 6 6 6 5 4 4 5 5 5 6 6 7 7 7 8 9 10 10 10 11 11 11
13 11 10 9 8 8 7 7 7 7 7 7 6 6 6 6 6 7 7 7 7 7 7 7 7 7 7 8 9 10 11 12 12 12 12 12 13 11 9 9 9 9 9 8 7 7 7 7 7 7 7 7 7 6 5 4 4 4 4 4 4 5 5 6 6 6 5 4 4 4 5 6 6 7 7 7 7 8 9 9 10 11 11 11 11
13 11 11 10 9 9 8 8 7 7 7 7 7 7 7 7 7 7 8 7 7 7 7 7 7 7 7 8 9 10 11 12 12 12 12 12 12 10 9 8 8 8 8 8 7 7 6 6 6 6 6 7 6 6 5 5 5 5 5 5 5 5 6 5 4 5 5 5 5 5 5 6 6 7 7 7 7 8 8 9 9 10 10 10 10
13 12 11 11 10 9 9 8 8 8 7 7 7 7 7 7 7 8 8 8 7 7 7 6 6 7 7 8 9 10 11 11 11 11 12 12 10 9 8 7 7 7 7 7 7 7 7 7 6 6 6 6 5 5 5 6 7 7 6 6 6 6 6 6 5 5 6 7 7 6 5 5 6 6 7 7 7 7 8 8 9 9 9 10 10
12 12 11 11 10 10 9 9 9 8 8 8 8 8 7 7 8 8 8 7 7 6 6 6 7 7 7 8 9 10 11 11 10 10 11 10 9 8 7 7 7 7 7 7 7 8 8 7 7 6 6 6 5 5 6 7 7 7 7 7 7 7 6 6 6 6 6 6 6 6 6 5 6 6 7 7 7 7 7 8 8 9 9 9 10
13 13 12 11 11 10 10 10 10 10 10 9 8 8 8 8 8 8 8 8 7 7 7 7 7 7 7 8 9 10 10 10 10 10 10 9 8 7 7 6 6 6 6 7 8 8 9 8 8 7 7 6 6 6 6 6 7 8 8 8 8 7 7 7 7 6 6 5 4 5 6 5 5 6 6 7 6 6 7 8 8 9 9 9 10
14 13 12 12 12 11 11 11 11 11 10 10 9 9 9 9 9 9 9 9 8 8 7 7 6 6 7 8 9 10 10 9 10 11 10 8 8 8 6 5 5 5 6 7 8 9 9 9 8 8 7 7 7 7 7 7 8 9 9 9 9 8 7 7 7 7 7 7 7 7 6 5 5 6 6 6 6 6 6 7 8 8 9 10 10
14 14 13 12 13 12 12 12 12 11 11 10 10 10 10 10 10 10 10 9 8 7 6 5 5 6 7 8 9 9 9 9 11 11 9 8 8 8 7 6 5 5 6 8 9 10 10 10 9 8 7 7 7 8 7 7 8 8 8 9 8 8 8 8 7 6 8 9 9 9 7 6 6 6 6 6 6 6 6 7 8 9 9 9 10
15 14 13 12 13 12 12 12 12 12 11 11 10 10 10 10 10 10 9 8 8 7 5 5 5 5 6 7 8 9 9 10 11 10 9 9 9 8 7 7 6 5 6 8 10 11 11 11 11 9 7 7 7 7 7 6 6 7 7 7 7 7 7 7 7 6 6 8 9 9 8 8 7 6 6 6 6 7 7 7 8 9 9 9 9
14 14 14 13 13 13 12 13 12 12 12 12 11 11 11 11 10 10 9 9 8 6 5 4 4 5 6 7 8 9 10 11 11 10 9 9 9 8 8 7 7 7 8 9 10 11 12 13 12 10 8 8 7 7 7 6 6 6 6 6 6 6 6 7 7 7 6 7 9 9 9 9 9 8 8 7 7 7 7 8 8 9 9 9 10
15 14 14 13 13 13 12 13 13 13 13 13 13 12 12 11 11 10 9 8 7 6 5 3 3 4 5 7 8 10 11 11 11 10 10 10 9 8 8 8 8 9 10 11 12 12 13 13 13 12 11 10 9 8 8 8 7 7 7 6 6 6 6 7 7 7 8 9 9 9 9 10 10 10 9 8 8 7 7 8 8 9 9 9 10
16 15 14 13 13 13 13 14 15 15 15 14 14 14 13 12 11 10 9 8 6 6 4 3 3 3 5 7 9 11 12 12 11 11 10 10 10 9 8 8 9 11 13 13 13 13 14 14 14 13 13 13 13 11 10 10 9 9 8 8 7 7 6 6 7 7 8 9 9 9 9 10 10 10 10 9 8 8 8 8 8 9 9 9 10
18 16 15 14 13 13 14 14 16 16 15 15 14 13 13 13 12 11 9 8 7 6 4 3 2 3 5 7 9 11 12 12 12 11 11 11 10 10 9 10 11 13 15 16 16 16 15 15 14 14 14 15 15 13 13 11 10 9 9 9 8 8 7 7 7 7 7 7 8 8 9 9 10 10 10 9 9 9 8 8 8 9 9 9 9
18 17 16 14 14 15 15 16 17 17 16 15 14 13 13 13 13 11 10 9 8 6 4 3 1 2 4 7 9 12 13 13 12 12 11 11 11 11 11 12 14 16 18 18 19 18 17 17 16 15 16 16 15 13 13 11 10 9 9 9 9 9 9 8 8 8 7 8 8 8 9 9 9 10 10 9 9 9 9 9 9 9 9 9 9
18 17 17 16 16 17 17 18 18 18 17 16 15 15 15 14 14 12 11 9 8 6 4 3 0 2 4 6 9 12 13 13 12 12 12 12 12 12 13 14 16 18 20 21 21 20 20 19 17 16 16 16 15 14 12 11 10 9 9 9 10 10 10 9 9 9 9 9 9 9 9 9 10 10 10 10 9 9 9 9 9 9 9 9 9
19 19 19 19 19 19 19 19 19 19 18 17 16 16 16 16 15 14 12 10 8 6 4 2 0 2 4 6 9 11 12 13 13 13 13 13 13 14 15 16 18 20 22 23 23 22 21 20 19 18 17 16 15 14 11 9 9 9 9 10 10 10 10 9 9 9 10 10 10 9 9 9 10 10 11 10 10 9 9 9 9 9 9 9 9
21 20 21 22 21 21 20 20 20 19 18 18 17 17 17 17 16 14 13 11 9 7 5 3 1 1 3 6 8 10 11 12 13 14 14 14 15 15 16 17 19 21 23 25 25 23 22 21 20 19 18 16 15 13 11 9 8 8 8 9 11 11 10 10 9 10 10 10 10 10 10 10 10 11 11 10 9 9 9 9 8 9 9 9 9
23 22 24 24 22 21 22 21 20 19 19 18 17 17 18 17 16 14 13 12 10 8 6 4 2 0 2 5 8 9 10 11 13 14 15 16 16 16 17 18 20 22 24 26 26 24 22 21 20 20 19 17 15 13 11 9 7 7 7 8 10 11 11 11 11 11 11 11 10 10 11 11 11 11 10 10 9 9 8 8 9 9 9 9 10
23 24 26 25 23 22 22 21 20 19 19 18 18 18 18 17 16 14 14 13 11 9 7 5 3 1 2 4 7 9 9 10 12 14 15 16 17 18 18 18 20 22 25 27 27 24 22 21 20 20 19 17 15 14 12 10 7 6 7 9 11 12 12 12 12 11 10 10 11 11 11 11 11 11 10 9 9 8 8 8 9 9 9 10 10
24 26 26 25 24 23 22 21 20 20 20 20 20 19 19 18 17 16 15 13 11 9 8 6 4 2 1 3 6 8 9 9 11 13 15 17 18 19 19 19 21 22 24 27 27 24 22 21 20 20 19 17 16 15 13 11 9 7 7 10 12 13 12 12 13 11 9 11 12 13 12 12 11 11 10 9 8 8 8 8 9 9 9 10 10
27 28 27 27 25 25 24 23 22 21 22 22 22 21 20 19 19 18 16 14 12 10 9 7 5 3 1 3 5 6 8 9 10 12 14 16 18 19 20 20 21 23 24 26 27 24 21 20 20 20 19 18 17 15 13 12 10 8 8 10 12 13 12 12 12 11 10 12 13 13 13 12 12 12 11 9 8 8 8 8 8 8 9 9 9
29 30 30 29 26 24 24 24 23 23 24 24 23 23 22 21 20 19 17 15 13 11 9 7 6 4 2 3 4 5 6 8 9 11 13 15 17 19 20 21 21 22 23 25 26 23 21 20 20 20 19 19 17 15 13 13 12 10 9 11 12 12 12 12 12 11 12 13 14 14 13 12 11 11 10 9 8 8 8 8 8 8 8 8 9
33 34 34 31 26 24 25 26 26 26 26 26 25 25 24 23 22 20 18 16 14 12 10 8 6 5 2 2 3 4 5 6 8 10 12 14 17 18 20 21 22 22 23 24 25 23 20 20 20 20 19 19 17 16 15 14 13 13 12 12 13 12 12 11 11 11 12 13 13 13 12 11 10 10 9 8 8 8 8 8 8 8 8 8 8
37 38 36 31 25 25 28 28 29 29 28 28 27 27 26 25 23 21 19 17 15 13 11 9 7 5 2 2 2 3 4 5 7 9 11 14 16 18 20 21 22 21 22 22 23 22 20 19 19 19 19 18 17 16 16 15 14 13 13 13 13 12 12 11 10 10 11 12 12 12 12 11 10 8 7 7 7 8 8 8 7 7 8 8 8
36 36 33 30 26 28 31 32 32 32 31 30 29 29 28 27 25 22 20 18 16 14 12 10 8 5 2 2 1 2 4 5 6 8 10 13 16 18 20 21 21 21 20 21 22 21 20 19 19 19 18 17 17 17 16 15 14 14 14 14 13 13 12 12 11 11 12 12 12 12 12 11 10 8 7 7 7 8 8 9 7 7 7 8 9
32 34 33 30 28 31 33 34 34 34 33 32 32 31 30 28 26 23 21 18 16 15 13 10 8 5 2 1 1 2 3 5 6 7 10 12 15 18 20 20 20 20 20 20 20 19 19 19 18 17 17 17 18 17 16 15 14 14 14 14 14 14 14 13 13 13 12 12 12 12 12 11 10 8 7 7 8 7 8 8 8 7 7 8 9
30 33 34 32 31 33 34 35 36 36 35 34 33 32 31 30 27 25 22 19 16 15 14 11 8 5 3 1 1 3 4 5 6 7 9 11 15 18 20 20 20 19 19 19 19 18 18 18 17 16 17 18 17 16 15 14 14 14 14 14 15 15 15 15 14 14 13 13 12 12 12 11 10 9 8 8 8 8 7 8 9 8 8 8 9
29 30 32 33 34 35 35 36 38 38 36 35 35 34 33 31 29 26 24 20 17 15 14 12 9 6 4 2 1 4 5 6 7 7 7 10 14 17 20 21 19 18 18 18 18 17 17 16 16 16 17 17 16 15 14 14 14 14 14 15 16 16 15 15 15 15 14 13 12 12 12 11 11 10 10 9 9 9 8 8 9 9 8 9 10
26 28 31 33 34 36 37 39 39 39 39 37 37 36 35 34 31 28 25 22 18 15 13 12 9 6 4 3 3 5 6 7 7 7 7 9 13 16 19 20 19 17 17 17 17 16 16 15 15 16 16 15 14 13 13 14 15 15 16 16 17 17 17 17 16 15 14 13 12 11 11 12 12 12 11 11 10 10 10 9 8 8 8 9 11
25 27 29 31 33 37 39 41 42 42 40 39 39 38 37 36 33 30 27 23 18 15 13 11 9 6 5 4 4 5 7 7 6 6 7 9 12 16 19 20 19 17 16 16 16 16 15 14 14 14 13 13 13 13 14 15 16 17 17 17 18 18 18 18 17 16 15 13 12 12 12 12 13 13 12 12 12 11 10 10 8 7 8 10 12
28 28 28 31 34 38 41 42 43 43 42 42 42 41 39 37 34 31 28 23 18 15 14 12 9 7 5 4 5 5 7 7 5 5 7 9 13 16 18 19 18 17 16 16 16 15 14 13 12 12 12 13 13 14 15 16 17 18 18 18 18 19 19 18 17 16 15 14 13 12 12 12 13 13 12 12 13 12 11 10 9 7 7 10 13
31 29 29 33 36 38 41 43 44 44 44 44 44 43 41 40 36 32 29 24 19 15 14 13 10 6 5 6 7 7 6 6 5 6 7 10 14 16 18 18 17 16 16 15 14 13 13 12 12 12 12 13 14 15 16 17 17 18 18 19 19 19 19 18 17 16 15 14 14 13 13 13 13 13 13 13 13 13 11 10 10 8 9 11 13
32 33 33 34 37 40 42 43 44 44 45 45 47 45 44 43 38 33 31 26 20 17 15 13 10 7 6 8 9 9 7 6 6 7 7 10 14 15 16 16 15 14 15 14 13 12 12 12 12 13 14 14 14 15 16 17 18 18 19 19 20 20 20 18 17 16 15 14 13 13 14 13 13 13 14 14 14 13 11 11 10 10 10 11 13
34 34 35 34 37 42 45 45 44 44 46 48 49 48 46 45 39 35 34 28 21 18 16 13 11 9 9 11 12 11 8 6 7 8 8 9 13 15 15 15 14 14 14 14 13 12 12 12 13 14 14 15 15 16 17 17 18 18 19 20 21 21 20 19 17 16 15 14 13 14 14 13 12 13 14 13 13 14 12 11 11 11 11 11 12
31 31 31 31 35 43 48 46 45 46 48 50 51 50 49 47 41 37 36 30 22 18 16 14 13 11 11 14 15 12 8 8 8 8 8 9 13 14 15 15 14 14 14 14 13 12 12 12 13 14 15 15 15 16 16 17 18 19 20 21 22 22 21 19 18 17 15 15 14 14 14 13 12 13 14 13 12 13 13 11 10 10 10 10 11
29 27 27 26 29 40 51 50 47 47 49 50 52 52 50 49 44 40 39 32 23 19 17 16 15 14 14 16 16 12 9 9 9 9 9 9 12 15 15 16 15 14 14 14 13 12 12 12 13 14 15 16 16 16 16 17 18 19 20 22 23 23 21 19 18 16 15 16 15 14 13 13 13 14 14 13 12 13 12 10 9 9 10 11 11
30 27 27 25 23 31 44 47 45 47 50 50 51 52 50 49 45 41 41 33 24 20 19 18 17 16 16 17 17 13 10 10 10 10 10 10 12 16 17 16 16 15 14 14 13 12 12 12 13 14 15 16 16 16 17 17 18 20 21 22 23 22 21 20 19 17 16 16 16 15 14 13 14 15 14 13 13 13 13 11 11 11 11 12 12
29 26 25 25 24 26 33 38 39 43 49 50 51 51 50 49 46 43 42 34 26 22 20 20 19 17 17 18 18 14 11 11 11 11 11 11 12 16 18 18 17 15 14 14 12 12 12 13 13 14 15 16 16 17 17 18 19 20 21 21 22 22 21 20 20 19 18 17 17 16 15 14 15 16 15 14 14 12 11 12 13 13 13 13 13
27 24 23 24 27 28 29 31 34 36 39 45 50 50 50 49 47 45 44 37 29 24 22 22 20 18 17 18 18 15 12 12 12 13 13 13 13 15 19 19 18 16 14 14 12 12 12 13 13 14 14 15 16 17 18 19 20 20 21 22 22 22 21 21 21 20 19 18 17 16 16 16 16 16 16 16 14 11 10 12 14 15 14 13 13
30 26 25 26 27 29 28 28 31 31 31 37 44 46 47 49 48 46 44 38 31 25 23 23 20 18 18 18 18 16 14 13 14 14 14 14 15 15 19 21 19 17 15 14 13 12 12 13 13 14 14 14 16 17 18 19 20 21 21 22 22 22 21 21 20 20 20 19 18 17 17 17 16 15 16 16 13 10 10 12 14 15 14 14 14
34 31 31 30 29 29 28 27 28 29 29 31 37 39 43 46 46 46 44 38 32 27 23 23 20 19 19 19 19 17 15 15 16 16 15 15 16 16 18 21 21 18 16 16 14 12 12 13 13 13 14 14 15 17 18 19 20 21 22 21 22 22 22 21 21 21 20 20 19 18 18 17 16 14 15 14 12 11 13 13 15 15 15 15 15
33 34 35 33 31 30 28 26 26 28 29 29 32 34 39 43 43 46 45 38 32 28 23 22 21 21 21 20 20 18 16 17 18 16 15 15 16 16 17 21 22 20 18 17 16 14 13 12 13 13 13 14 15 17 18 20 21 22 22 22 21 21 22 22 21 21 20 19 19 18 18 17 16 14 14 13 13 14 15 13 14 17 17 17 16
32 34 37 35 31 30 28 27 26 27 29 30 31 31 34 39 41 45 46 40 34 27 23 23 24 23 22 22 21 19 18 19 18 15 15 15 16 17 17 20 23 23 20 18 17 16 14 13 13 13 13 13 15 17 19 20 21 22 22 21 21 22 22 22 22 21 20 20 20 18 17 16 16 15 14 14 13 14 13 12 13 17 19 18 17
33 31 34 35 30 28 27 28 28 28 31 34 34 33 34 36 39 43 45 43 37 29 27 27 26 24 24 24 23 20 20 20 17 14 14 15 16 17 18 20 23 24 22 19 18 16 15 14 13 13 13 13 14 16 19 21 22 23 22 21 20 21 22 24 24 22 21 22 20 18 17 16 17 16 15 13 11 9 9 10 12 14 17 18 17
37 31 31 33 30 26 27 28 29 29 31 34 36 37 37 36 36 41 45 42 37 34 34 31 27 26 25 25 24 22 21 21 18 14 13 15 16 17 18 20 23 25 24 21 19 17 16 15 14 13 13 14 15 16 18 21 22 23 23 22 21 21 21 23 25 24 23 22 20 19 17 18 19 18 15 11 8 7 8 10 11 12 14 18 17
43 38 34 31 28 25 27 30 29 28 29 32 36 38 39 38 37 39 43 42 38 37 37 32 28 27 26 26 26 23 21 21 18 15 13 14 15 16 17 19 22 25 25 23 21 19 17 16 15 14 14 14 15 16 17 20 22 23 23 22 21 20 20 21 23 24 23 22 21 20 19 19 19 19 15 11 9 9 11 12 12 11 14 18 16
44 45 43 39 33 28 28 30 30 28 27 27 32 35 36 37 37 38 42 43 40 39 38 33 29 28 27 27 27 24 22 20 18 16 14 14 15 16 17 18 21 25 26 24 22 21 19 18 17 15 15 15 15 16 17 18 21 22 23 22 21 20 20 20 22 22 22 21 21 20 19 19 19 18 15 13 12 12 14 14 12 11 15 18 16
42 46 50 50 46 39 32 30 30 29 28 26 27 31 32 33 35 39 43 44 41 41 39 35 31 30 29 29 28 26 23 19 18 16 14 13 14 15 16 17 20 24 26 24 22 21 20 19 18 17 16 16 15 15 16 18 20 21 22 21 21 20 20 21 21 21 21 22 21 20 20 20 19 17 15 13 13 13 14 14 12 11 15 19 20
Wind_Direction
221 225 231 235 239 237 224 202 178 157 142 140 142 134 127 139 174 217 250 266 277 283 285 289 294 300 304 310 318 326 336 341 344 344 344 342 342 344 344 342 341 342 342 341 339 338 341 343 341 336 336 337 340 345 349 352 353 355 352 347 344 343 343 337 336 343 349 358 1 358 359 358 354 354 359 2 3 6 9 11 12 16 19 21 24
218 222 227 232 235 230 210 194 173 150 140 141 139 134 139 159 196 234 256 269 275 280 283 287 293 299 305 312 320 328 336 341 345 346 344 344 346 349 347 346 347 348 347 344 342 344 350 353 350 345 345 346 349 351 354 357 360 2 356 348 336 326 327 326 333 342 349 7 11 8 6 1 353 353 0 3 4 6 9 11 12 17 22 24 26
212 216 221 227 227 221 202 192 171 149 142 142 139 144 157 180 212 242 257 266 271 275 279 286 293 299 306 314 322 329 336 342 346 346 345 348 351 352 350 350 352 352 350 345 344 351 0 1 357 352 351 353 355 355 357 359 358 358 352 344 328 321 330 338 352 355 351 4 17 20 15 4 355 356 3 2 2 3 7 12 14 18 23 26 26
210 211 215 219 218 211 199 190 167 150 146 146 148 159 176 197 223 243 254 260 264 270 277 283 292 297 306 314 323 330 337 344 347 347 348 353 355 353 352 354 357 355 350 345 348 359 7 6 1 357 359 2 2 1 358 354 341 328 325 336 338 337 346 355 5 2 353 3 15 21 17 6 0 2 3 358 0 4 7 11 12 17 24 27 26
209 209 209 212 210 202 196 186 163 154 153 155 163 176 192 210 228 242 249 255 260 266 275 282 290 296 306 316 325 333 340 345 347 349 354 358 357 354 354 359 0 356 350 347 352 4 11 11 7 4 8 10 8 5 357 341 321 317 327 341 345 344 353 2 5 357 352 358 5 17 17 5 2 6 359 355 2 5 8 9 10 15 21 25 26
207 203 205 208 204 196 191 180 163 161 163 168 177 188 202 217 229 238 244 250 258 265 274 281 288 298 310 320 329 337 342 347 349 353 0 2 357 354 357 3 3 358 352 349 355 6 15 17 15 12 14 17 12 3 351 338 333 341 345 344 339 339 354 358 353 355 4 6 0 11 19 4 1 3 353 352 0 2 6 7 10 14 17 21 25
208 198 200 205 200 194 186 176 166 168 173 178 188 197 209 221 230 235 241 247 256 263 270 280 290 304 315 324 332 340 345 347 351 359 5 3 357 356 2 7 7 3 355 352 357 8 19 22 21 17 18 20 12 359 352 350 351 353 351 349 345 347 355 348 343 356 15 15 4 9 15 4 359 355 347 348 356 360 3 5 7 9 11 16 21
208 198 197 202 198 191 182 175 169 172 179 184 193 203 213 221 230 233 238 245 253 262 270 283 294 308 320 329 337 344 347 349 357 6 8 4 359 0 7 13 14 9 1 357 2 10 18 22 23 19 18 13 1 358 3 1 357 355 354 359 0 360 359 351 351 356 6 9 8 13 12 6 359 348 341 344 351 357 1 1 1 1 4 9 14
201 197 195 196 191 187 179 174 173 178 183 189 201 210 220 223 229 232 235 244 252 261 269 280 291 305 322 334 342 348 349 353 4 12 10 5 2 6 11 16 23 18 10 9 11 15 16 19 21 19 15 0 350 1 8 2 357 359 360 5 10 10 10 10 9 9 11 8 10 16 7 8 2 342 336 338 344 352 357 356 354 354 357 0 6
194 194 194 191 185 184 180 178 180 186 193 201 212 220 226 227 230 232 235 242 248 254 261 274 288 308 326 338 348 352 352 359 11 14 10 8 10 12 11 18 27 23 20 23 25 24 21 19 19 18 11 353 346 358 2 357 360 4 5 10 17 18 24 32 29 34 41 34 26 21 5 4 1 342 334 335 340 348 353 352 351 351 352 353 355
190 191 193 191 185 184 184 186 191 196 203 210 217 221 223 224 229 231 233 235 238 244 254 272 292 315 331 344 353 356 0 10 18 16 10 13 18 15 11 17 22 20 25 30 32 31 28 25 23 17 5 350 347 354 353 352 1 8 10 16 24 27 36 46 42 49 51 38 30 24 11 9 4 348 340 339 341 345 348 350 349 348 348 347 345
191 191 192 193 190 189 190 193 199 203 205 210 213 216 219 220 223 225 226 227 232 240 252 274 298 321 338 351 358 2 11 21 23 17 13 18 21 17 13 15 15 15 27 33 33 31 30 29 27 21 2 349 352 354 347 348 357 8 17 22 31 37 45 52 50 54 39 23 22 18 13 16 12 357 351 349 348 346 346 347 346 345 342 339 339
192 194 194 196 196 194 195 198 201 202 202 205 208 212 215 214 215 218 222 225 230 238 251 274 306 329 347 358 3 11 21 26 25 20 17 20 19 17 15 14 12 15 27 33 33 31 29 30 27 22 6 357 2 355 343 350 357 5 19 25 34 42 47 53 52 52 36 22 20 12 10 14 9 358 356 355 354 351 347 344 343 340 337 335 334
191 198 199 200 199 196 197 200 200 199 199 201 204 207 208 207 211 215 219 223 228 238 250 275 309 333 355 5 12 20 27 30 28 24 21 20 17 15 14 12 11 17 25 28 30 30 30 30 26 18 7 9 14 1 348 357 3 5 15 22 32 36 40 46 47 45 33 25 20 9 9 11 2 353 353 354 353 351 347 346 343 338 334 333 330
192 197 202 203 199 197 197 200 199 197 198 199 200 201 204 207 210 212 215 220 230 242 250 273 304 340 5 13 19 25 30 32 29 28 24 20 18 14 11 11 13 19 24 25 24 25 27 27 25 15 5 12 19 10 2 5 7 8 14 20 27 30 30 32 35 33 23 19 15 4 7 7 357 350 350 353 350 346 345 346 344 338 334 332 327
195 194 199 200 197 197 196 200 199 197 196 197 198 200 206 208 207 208 211 220 229 236 242 263 296 351 16 22 27 31 33 33 31 30 28 24 21 15 12 13 17 22 25 24 22 20 21 22 21 13 6 13 18 14 12 11 13 13 17 22 24 27 28 27 25 21 13 11 8 2 4 1 352 346 348 353 351 347 346 346 343 338 333 332 330
198 193 193 195 197 196 194 199 199 198 196 198 202 205 208 206 205 207 210 216 222 225 228 242 288 6 25 32 35 37 35 33 32 31 30 27 23 18 16 17 20 24 27 26 23 20 18 19 17 11 8 13 15 14 17 15 19 23 24 28 28 27 27 26 23 16 9 5 2 1 4 359 348 343 345 350 350 347 346 347 343 337 333 333 332
201 195 191 193 197 197 196 199 201 203 202 206 213 214 214 210 208 207 208 211 215 216 211 218 267 22 31 39 42 42 38 33 30 30 29 27 23 21 21 21 22 26 29 28 26 22 19 18 15 10 10 12 11 12 19 17 21 29 32 35 34 28 21 18 16 10 3 358 355 356 359 354 346 342 342 346 346 344 344 346 343 337 335 335 332
202 199 198 197 198 199 200 202 205 210 212 216 219 219 217 214 210 207 207 208 209 209 201 197 158 35 34 40 45 45 39 32 28 27 26 24 22 21 22 22 23 26 29 30 29 25 21 18 14 10 11 12 11 10 15 18 23 28 28 30 27 21 16 14 12 7 0 355 351 351 352 348 342 339 339 343 342 341 344 345 342 340 339 336 333
202 202 201 199 200 200 201 205 209 213 218 219 218 217 215 212 208 206 208 207 205 202 199 190 161 42 37 40 46 46 39 31 25 23 21 20 19 19 21 20 21 26 29 30 30 28 23 19 13 11 11 11 12 8 9 14 20 23 21 23 21 18 14 10 5 2 358 352 350 350 351 347 341 338 337 341 341 341 345 342 340 342 343 338 335
203 203 199 199 203 203 203 205 209 214 216 215 212 211 210 209 207 208 212 210 203 199 198 190 176 101 41 40 45 44 36 29 22 18 16 16 16 16 17 17 18 23 28 30 31 28 24 19 13 13 10 8 10 5 4 6 11 19 20 21 19 14 9 5 359 357 356 351 351 353 355 350 344 337 335 341 341 342 346 341 340 345 344 339 339
204 203 199 200 205 206 205 205 209 212 211 208 206 208 208 210 211 212 215 212 202 198 197 194 189 166 56 39 43 40 31 24 17 13 12 12 13 13 12 12 14 19 26 29 30 28 25 19 12 12 9 4 6 0 358 358 357 6 14 18 17 11 6 5 1 356 354 357 359 360 360 354 346 338 337 345 342 343 349 342 344 348 344 340 340
201 201 201 204 208 207 205 206 209 210 209 207 206 209 211 214 217 214 211 208 201 196 196 198 200 193 103 46 38 34 27 17 11 7 6 8 9 9 8 8 10 15 23 27 28 26 23 19 12 11 7 3 4 360 356 353 349 350 3 15 18 14 10 9 6 3 6 9 7 3 1 358 351 339 338 348 343 344 351 345 348 350 343 339 339
198 199 202 208 213 211 207 207 209 209 208 208 210 213 215 216 216 212 206 203 200 196 195 199 205 204 168 65 40 27 22 11 3 360 359 2 3 5 5 4 6 11 19 25 26 24 21 18 13 10 4 2 4 1 355 352 351 350 356 6 10 8 5 5 3 2 359 357 356 353 353 354 350 339 337 347 342 343 349 346 349 348 341 339 337
201 202 203 211 217 215 212 208 208 210 208 209 211 211 214 214 212 210 203 199 198 197 195 197 203 205 180 81 50 20 11 3 356 353 352 355 357 0 1 1 4 8 15 23 24 21 17 16 13 10 4 3 4 0 357 356 358 360 359 358 356 354 352 352 351 347 341 341 344 344 345 346 346 337 335 344 341 342 344 342 346 343 338 337 335
203 206 207 212 216 216 213 209 207 208 208 209 209 209 212 211 209 208 202 197 197 197 196 196 201 200 168 86 57 21 357 347 346 346 347 348 351 355 357 358 360 6 13 20 23 18 14 14 12 9 7 7 5 2 4 4 0 359 359 354 350 348 346 346 345 341 337 340 342 342 341 340 341 336 335 344 342 341 340 338 341 337 333 336 333
208 210 210 210 216 214 208 208 209 208 209 208 208 209 211 211 209 207 203 197 195 195 196 198 203 196 153 91 55 21 343 325 331 338 341 343 346 350 353 355 356 2 12 18 21 15 10 12 12 10 9 9 8 8 10 9 2 356 355 355 352 351 352 351 348 343 339 341 342 342 340 337 339 337 338 346 343 342 338 334 335 331 329 332 331
214 213 208 209 214 210 206 209 211 211 210 208 208 209 211 212 209 207 205 199 195 195 196 202 205 192 146 93 43 9 334 316 320 329 337 340 343 346 350 354 353 358 10 18 19 12 6 10 11 9 8 8 10 14 14 10 2 355 354 355 354 355 357 359 357 350 343 341 342 342 341 339 340 340 342 344 342 343 337 331 329 326 326 330 328
214 208 204 210 212 207 209 212 214 216 213 211 211 211 213 212 208 205 203 198 194 194 195 202 204 191 151 84 6 333 320 311 313 325 334 338 343 345 348 352 351 355 8 17 19 11 5 9 10 6 5 9 12 15 14 8 1 355 354 354 354 356 357 358 358 354 350 347 345 342 341 340 339 339 340 336 335 341 338 329 322 321 324 326 323
213 205 202 209 211 210 213 213 215 218 215 215 215 215 215 212 209 205 200 196 193 194 196 199 202 195 166 116 325 303 302 306 316 326 332 338 344 348 350 351 349 354 5 15 18 10 6 9 7 3 5 10 11 11 9 5 0 356 354 353 354 355 354 353 353 353 353 353 349 343 337 334 333 336 338 333 330 333 333 325 317 316 320 320 317
216 211 208 209 210 212 215 214 216 218 217 218 219 218 216 213 210 206 201 196 191 193 198 199 201 201 189 180 269 288 295 310 324 325 329 339 344 348 349 348 348 354 2 13 16 9 8 10 3 2 7 9 7 5 3 359 357 355 353 353 353 353 352 351 350 348 349 351 348 341 335 330 327 328 331 331 326 323 319 317 313 311 315 315 314
218 218 217 214 210 211 214 215 217 219 219 220 222 221 218 215 211 207 204 198 192 192 198 202 200 204 210 214 251 279 292 310 318 317 327 337 338 343 346 346 347 354 2 12 14 9 11 10 3 4 7 5 3 1 358 356 355 353 354 355 354 354 355 353 349 345 344 347 345 339 335 331 325 322 325 326 325 319 310 307 307 306 309 313 315
219 219 220 218 214 213 214 215 217 220 220 220 223 222 220 217 212 209 206 200 193 193 201 204 200 206 218 231 258 275 287 301 309 311 318 323 329 338 344 346 347 352 4 13 13 9 11 9 4 5 4 1 0 359 357 356 355 355 356 356 355 357 358 356 350 345 343 345 343 338 335 330 324 322 323 324 325 322 311 304 303 302 306 311 315
222 223 224 222 220 220 218 217 217 219 222 222 223 224 222 220 214 211 208 199 192 196 206 211 208 209 220 245 263 268 277 291 304 304 305 315 327 337 343 346 347 353 6 15 13 10 10 7 5 4 3 1 358 358 358 357 355 356 356 355 355 359 0 357 352 346 344 343 340 337 334 327 322 323 324 323 324 326 319 310 307 306 310 313 316
225 226 227 225 226 226 223 220 220 220 222 224 225 225 225 223 216 211 210 200 191 199 211 218 221 222 237 256 263 261 265 281 291 288 299 319 331 336 341 346 349 355 7 16 13 10 8 4 3 4 4 3 360 359 358 357 356 356 356 354 356 359 360 357 351 346 343 339 334 333 332 325 321 321 324 324 325 326 321 313 309 309 315 316 316
225 227 228 227 227 228 226 224 223 222 223 225 227 227 227 226 219 212 213 205 193 200 212 224 229 235 253 261 264 257 254 268 273 281 301 321 331 335 340 347 354 359 9 16 13 10 6 2 2 4 4 3 1 1 360 357 356 357 355 355 356 357 357 355 351 344 339 335 330 330 331 328 325 322 320 322 326 327 319 308 305 309 316 317 315
226 229 230 230 231 229 227 225 225 224 224 226 228 228 229 229 222 216 219 212 198 200 211 225 233 239 252 260 263 253 250 268 271 282 300 318 330 336 343 352 1 6 12 15 13 10 4 1 2 4 4 3 2 2 1 358 356 355 355 354 353 353 353 353 350 341 335 332 328 327 328 328 326 320 315 316 324 329 322 308 304 309 313 314 312
228 231 233 239 240 231 226 225 226 225 225 227 229 229 229 231 226 222 226 220 202 200 211 225 233 238 247 257 260 251 250 271 276 282 292 311 330 341 351 1 7 10 13 13 11 8 2 0 2 5 4 1 2 2 1 359 355 354 354 352 350 350 350 351 349 341 334 331 328 325 324 324 323 320 317 317 322 327 323 312 305 305 307 310 309
229 233 237 248 250 232 223 223 225 226 226 229 232 231 229 229 228 227 231 224 204 201 213 223 231 235 244 255 257 249 248 267 275 279 284 304 331 348 359 8 12 12 13 12 9 5 0 360 1 4 4 0 0 1 1 358 354 353 353 351 349 347 347 349 348 342 335 332 328 324 323 324 325 322 321 320 321 323 321 314 306 302 301 304 303
235 237 240 248 251 232 221 222 226 228 229 232 235 235 231 228 227 229 233 225 203 201 212 220 228 233 242 252 254 247 245 262 270 273 279 295 327 352 5 12 16 14 11 10 7 1 358 358 359 2 2 359 358 359 360 357 354 353 352 351 349 347 345 345 346 342 336 332 328 325 323 325 326 323 318 315 315 316 315 311 304 297 293 295 297
236 238 238 239 242 233 224 224 228 231 231 231 234 237 233 227 225 228 233 226 204 201 212 218 225 231 241 250 251 245 244 258 266 270 276 288 315 348 7 14 17 14 10 8 3 358 356 355 357 1 1 357 356 356 358 357 355 353 351 349 347 345 342 341 342 342 340 335 331 327 323 323 324 322 318 314 312 309 307 304 301 295 289 289 293
229 231 234 234 235 234 231 227 226 231 231 227 230 234 233 228 224 225 231 226 208 202 211 218 223 228 239 248 249 244 244 255 265 270 276 285 304 340 3 12 15 13 8 4 0 356 353 352 354 358 360 357 354 354 356 357 355 352 349 346 343 343 342 340 340 341 341 339 337 332 325 321 319 317 315 315 311 302 297 297 297 294 290 289 291
225 225 229 231 231 231 230 226 225 228 228 224 227 233 234 229 223 223 228 228 215 205 210 220 225 229 237 247 248 243 244 254 265 272 278 285 299 330 356 6 10 12 7 360 356 355 352 350 351 355 359 358 354 352 354 356 353 350 348 344 341 341 341 341 340 339 339 337 336 332 325 320 317 314 314 314 307 292 293 299 298 294 292 290 290
229 226 228 230 230 230 229 228 229 229 227 226 229 233 235 232 224 222 226 228 221 209 209 220 225 231 237 244 248 243 243 254 265 274 281 289 298 318 345 357 3 8 8 358 353 353 350 347 348 353 357 356 353 351 352 354 352 350 348 345 342 341 340 341 340 339 336 335 335 330 325 322 317 314 312 309 299 288 296 303 298 293 294 293 289
235 231 230 230 231 230 231 231 232 232 229 229 233 235 237 235 226 221 223 225 222 211 208 219 226 231 237 241 246 243 243 254 264 275 282 290 299 311 332 348 355 1 4 359 352 349 347 345 346 352 355 354 353 351 350 351 350 349 348 345 342 340 340 340 340 340 337 336 337 334 329 325 321 315 308 305 297 292 297 298 291 288 292 295 290
244 240 232 228 230 230 229 231 231 233 233 234 237 237 238 237 226 221 224 225 222 210 204 218 225 229 235 240 244 244 245 253 263 275 284 292 300 308 322 338 347 353 357 357 353 348 344 343 346 350 350 351 351 350 349 347 347 347 347 346 342 339 338 338 339 341 341 339 339 338 334 330 326 317 308 307 301 295 294 290 285 285 287 289 288
245 246 232 222 223 226 226 228 228 229 233 235 238 238 238 236 226 222 227 230 226 213 205 214 222 227 234 238 242 244 247 254 262 274 285 293 300 306 317 329 339 346 350 352 351 347 344 342 345 346 345 347 350 350 347 344 344 344 345 345 342 339 337 336 338 341 342 341 339 340 336 330 327 319 313 314 310 306 304 295 291 288 284 285 286
237 237 229 218 216 223 227 229 228 229 233 235 237 238 238 237 229 223 228 233 231 222 213 211 216 225 232 237 241 244 247 254 262 272 282 291 297 304 313 322 331 339 344 345 346 345 343 341 342 342 340 343 347 348 346 343 340 340 342 343 341 339 337 337 340 340 340 340 339 339 335 329 325 321 316 311 309 327 330 321 315 299 289 291 292
234 231 225 218 217 224 231 233 231 231 235 234 234 237 238 238 233 227 230 234 232 228 221 212 214 224 230 236 240 242 247 253 261 268 275 286 293 300 309 316 324 333 339 340 340 341 341 340 338 338 337 340 343 345 344 341 338 337 339 340 340 338 337 338 341 341 339 338 336 333 330 327 325 324 316 297 300 334 340 335 332 308 294 294 293
232 232 227 225 228 231 233 236 234 230 230 230 232 237 238 237 236 231 232 234 231 229 225 213 212 223 229 234 238 241 245 252 260 265 268 278 288 296 305 312 319 327 333 335 335 335 336 337 337 335 335 337 340 341 341 339 336 336 336 337 338 338 337 339 341 341 339 337 333 328 325 324 324 324 316 299 300 321 330 330 327 312 301 298 302
232 235 233 232 234 235 234 235 236 232 226 223 229 238 238 236 235 233 234 235 230 227 224 212 210 222 228 232 235 238 243 248 256 260 262 270 282 291 300 308 314 322 327 329 330 331 331 333 334 333 333 334 336 336 338 337 336 335 334 335 336 338 338 339 341 341 338 335 331 325 322 322 324 321 314 307 299 296 311 319 316 310 302 301 310
Height
5886 5887 5887 5887 5887 5888 5888 5887 5887 5887 5887 5887 5888 5888 5888 5889 5890 5890 5891 5891 5890 5890 5889 5889 5888 5887 5887 5886 5885 5884 5883 5882 5881 5880 5878 5877 5876 5874 5873 5872 5871 5870 5869 5868 5867 5866 5865 5864 5864 5863 5863 5862 5862 5862 5861 5861 5861 5860 5860 5860 5859 5858 5858 5857 5857 5857 5857 5857 5856 5856 5856 5856 5856 5855 5855 5854 5854 5854 5853 5852 5852 5851 5850 5849 5848
5885 5886 5886 5886 5886 5887 5887 5887 5887 5887 5887 5887 5888 5888 5889 5889 5890 5891 5891 5891 5890 5890 5889 5888 5888 5887 5886 5886 5885 5884 5883 5882 5880 5879 5878 5877 5875 5874 5873 5872 5871 5870 5869 5868 5867 5866 5865 5865 5864 5863 5863 5863 5862 5862 5862 5861 5861 5861 5860 5859 5858 5858 5857 5857 5857 5857 5856 5856 5856 5856 5856 5856 5856 5855 5855 5855 5854 5854 5853 5853 5852 5851 5850 5849 5848
5884 5884 5885 5885 5885 5886 5886 5886 5886 5886 5887 5887 5888 5888 5889 5890 5890 5891 5891 5890 5890 5889 5889 5888 5888 5887 5886 5885 5885 5884 5883 5881 5880 5879 5878 5876 5875 5874 5873 5872 5871 5870 5869 5868 5867 5866 5865 5865 5864 5864 5863 5863 5863 5862 5862 5861 5861 5860 5859 5859 5858 5857 5857 5857 5857 5857 5857 5856 5856 5856 5856 5856 5856 5856 5855 5855 5854 5854 5853 5853 5852 5851 5850 5850 5849
5882 5883 5883 5884 5884 5885 5885 5886 5886 5886 5887 5887 5888 5889 5889 5890 5890 5891 5891 5890 5890 5889 5889 5888 5887 5887 5886 5885 5884 5883 5882 5881 5880 5879 5877 5876 5874 5873 5873 5872 5871 5870 5869 5868 5867 5866 5866 5865 5865 5864 5864 5863 5863 5862 5862 5861 5860 5859 5859 5859 5858 5858 5858 5858 5858 5858 5857 5857 5856 5856 5856 5856 5856 5856 5856 5855 5855 5854 5853 5853 5852 5851 5850 5850 5849
5881 5882 5882 5883 5884 5884 5885 5885 5885 5886 5887 5887 5888 5889 5889 5890 5890 5891 5891 5890 5890 5889 5889 5888 5887 5887 5886 5885 5884 5883 5882 5881 5879 5878 5877 5875 5874 5873 5873 5872 5871 5870 5869 5868 5867 5867 5866 5865 5865 5864 5864 5864 5863 5862 5861 5860 5859 5859 5859 5859 5859 5859 5859 5859 5859 5858 5858 5857 5857 5857 5856 5856 5856 5856 5856 5855 5855 5854 5854 5853 5852 5851 5851 5850 5849
5880 5880 5881 5882 5883 5884 5884 5885 5885 5886 5887 5887 5888 5889 5890 5890 5891 5891 5891 5890 5890 5889 5889 5888 5887 5887 5886 5885 5884 5883 5882 5880 5879 5878 5876 5875 5874 5874 5873 5872 5871 5870 5869 5868 5868 5867 5866 5866 5865 5865 5864 5864 5863 5861 5860 5860 5859 5859 5859 5859 5859 5859 5859 5859 5858 5858 5857 5857 5857 5856 5856 5856 5856 5856 5856 5855 5855 5854 5854 5853 5852 5852 5851 5850 5850
5879 5879 5880 5881 5882 5883 5884 5884 5885 5886 5887 5887 5888 5889 5890 5890 5891 5891 5891 5890 5890 5889 5889 5888 5887 5887 5886 5884 5883 5882 5881 5880 5879 5877 5876 5875 5874 5874 5873 5872 5871 5870 5870 5869 5868 5867 5866 5866 5865 5865 5864 5863 5862 5861 5860 5860 5860 5860 5860 5859 5858 5859 5859 5858 5858 5858 5857 5857 5857 5856 5856 5856 5856 5856 5856 5855 5855 5854 5854 5853 5852 5852 5851 5851 5850
5878 5878 5879 5880 5881 5882 5883 5884 5885 5886 5887 5888 5889 5889 5890 5891 5891 5891 5891 5891 5890 5889 5889 5888 5887 5887 5885 5884 5883 5882 5881 5880 5879 5877 5875 5875 5875 5874 5873 5872 5871 5871 5870 5869 5868 5867 5866 5865 5865 5865 5864 5863 5862 5861 5861 5861 5860 5860 5859 5859 5859 5859 5858 5858 5858 5858 5857 5857 5857 5857 5856 5856 5856 5856 5856 5855 5855 5854 5853 5853 5852 5852 5851 5851 5850
5876 5877 5878 5880 5881 5882 5883 5884 5885 5886 5887 5888 5889 5890 5890 5891 5891 5891 5891 5891 5890 5890 5889 5888 5887 5886 5885 5884 5883 5882 5881 5880 5878 5877 5876 5876 5875 5874 5873 5872 5872 5871 5871 5870 5868 5867 5866 5865 5865 5865 5864 5863 5862 5862 5861 5861 5860 5860 5860 5860 5859 5859 5859 5858 5858 5858 5858 5857 5857 5857 5857 5857 5856 5856 5856 5855 5855 5854 5853 5853 5852 5852 5851 5851 5850
5874 5876 5877 5879 5880 5881 5882 5883 5885 5886 5887 5888 5889 5890 5891 5891 5891 5891 5891 5890 5890 5890 5889 5888 5887 5886 5885 5884 5883 5882 5881 5879 5878 5876 5876 5876 5875 5873 5873 5873 5872 5872 5871 5870 5869 5867 5866 5866 5865 5865 5864 5862 5862 5862 5861 5861 5861 5860 5860 5860 5860 5859 5859 5859 5859 5858 5858 5858 5857 5857 5857 5857 5856 5856 5856 5855 5855 5854 5853 5852 5852 5851 5851 5850 5850
5873 5875 5877 5878 5879 5880 5882 5883 5884 5886 5887 5888 5889 5890 5891 5891 5891 5891 5891 5890 5890 5889 5889 5888 5887 5886 5885 5884 5883 5882 5881 5879 5877 5877 5876 5876 5875 5873 5873 5873 5872 5872 5872 5870 5869 5868 5867 5866 5866 5865 5864 5862 5862 5862 5861 5861 5861 5861 5860 5860 5860 5859 5859 5859 5859 5859 5859 5858 5858 5858 5857 5857 5856 5856 5856 5855 5854 5853 5853 5852 5852 5851 5851 5850 5850
5872 5874 5876 5877 5879 5880 5881 5883 5884 5885 5887 5888 5889 5890 5890 5891 5891 5891 5890 5890 5890 5889 5889 5888 5887 5886 5885 5884 5883 5882 5881 5879 5878 5877 5877 5876 5875 5874 5873 5872 5873 5873 5872 5870 5869 5868 5867 5867 5867 5866 5864 5863 5863 5862 5862 5861 5861 5861 5860 5860 5859 5859 5859 5859 5859 5859 5859 5859 5858 5858 5857 5857 5856 5856 5855 5855 5854 5853 5852 5852 5851 5851 5850 5850 5849
5871 5873 5875 5877 5878 5880 5881 5882 5884 5885 5886 5887 5889 5889 5890 5890 5891 5891 5890 5890 5890 5889 5888 5887 5887 5886 5885 5884 5883 5882 5880 5879 5878 5878 5877 5876 5875 5874 5873 5873 5873 5873 5871 5870 5869 5868 5868 5868 5867 5866 5864 5864 5864 5863 5862 5861 5861 5861 5860 5859 5859 5859 5859 5859 5859 5859 5859 5858 5858 5858 5857 5856 5856 5855 5855 5854 5853 5852 5852 5851 5851 5850 5850 5849 5849
5870 5873 5874 5876 5877 5879 5880 5882 5883 5885 5886 5887 5888 5889 5890 5890 5890 5890 5890 5890 5889 5889 5888 5887 5887 5886 5885 5884 5883 5881 5880 5879 5878 5878 5877 5876 5876 5875 5874 5873 5873 5872 5871 5869 5869 5868 5868 5868 5867 5866 5865 5865 5865 5863 5862 5862 5861 5861 5860 5860 5859 5859 5859 5859 5859 5859 5859 5858 5858 5858 5857 5856 5856 5855 5854 5854 5853 5852 5851 5850 5850 5849 5849 5849 5848
5869 5872 5874 5875 5877 5878 5880 5881 5883 5884 5885 5886 5887 5888 5889 5890 5890 5890 5890 5890 5889 5889 5888 5887 5887 5886 5885 5884 5882 5881 5880 5879 5878 5878 5878 5877 5876 5875 5874 5873 5872 5871 5870 5869 5869 5868 5868 5868 5867 5866 5865 5865 5865 5864 5862 5862 5861 5861 5860 5860 5860 5859 5859 5859 5859 5858 5858 5858 5857 5857 5856 5856 5855 5855 5854 5853 5852 5851 5851 5850 5849 5849 5848 5848 5847
5868 5870 5873 5874 5876 5878 5880 5881 5883 5884 5885 5886 5887 5888 5888 5889 5889 5890 5889 5889 5889 5889 5888 5887 5887 5886 5885 5884 5882 5881 5880 5879 5879 5879 5878 5877 5877 5876 5875 5874 5872 5871 5869 5868 5868 5868 5868 5868 5867 5866 5865 5865 5865 5864 5863 5862 5861 5861 5860 5860 5860 5859 5859 5859 5858 5858 5857 5857 5857 5856 5856 5855 5855 5854 5854 5853 5852 5851 5850 5849 5849 5848 5847 5847 5846
5866 5869 5871 5874 5876 5877 5879 5881 5882 5884 5885 5886 5887 5887 5888 5888 5889 5889 5889 5889 5889 5888 5888 5887 5887 5886 5885 5884 5882 5881 5880 5879 5879 5879 5878 5878 5877 5876 5875 5874 5872 5870 5869 5868 5868 5867 5867 5867 5867 5866 5866 5865 5865 5864 5863 5862 5861 5861 5860 5860 5859 5859 5859 5858 5858 5858 5857 5857 5856 5856 5855 5855 5854 5854 5853 5852 5851 5850 5850 5849 5848 5847 5846 5846 5845
5865 5867 5870 5872 5875 5877 5878 5880 5882 5883 5884 5885 5886 5887 5888 5888 5888 5888 5888 5888 5888 5888 5887 5887 5886 5886 5885 5884 5882 5881 5880 5880 5880 5879 5878 5878 5877 5877 5875 5874 5872 5870 5868 5868 5868 5867 5867 5867 5866 5866 5866 5866 5865 5864 5863 5862 5861 5861 5860 5860 5860 5859 5858 5858 5858 5857 5857 5857 5856 5855 5855 5854 5853 5853 5852 5851 5851 5850 5849 5848 5848 5847 5846 5845 5845
5863 5866 5869 5871 5874 5876 5878 5879 5881 5883 5884 5885 5885 5886 5887 5887 5887 5888 5888 5888 5887 5887 5887 5886 5886 5886 5885 5884 5883 5881 5881 5881 5880 5879 5879 5878 5878 5877 5875 5874 5872 5870 5869 5868 5868 5868 5867 5866 5866 5865 5866 5866 5865 5864 5863 5862 5862 5861 5861 5860 5860 5860 5859 5858 5858 5857 5857 5856 5855 5855 5854 5853 5852 5852 5851 5850 5850 5849 5848 5848 5847 5846 5845 5844 5844
5862 5865 5868 5870 5872 5874 5876 5878 5880 5881 5883 5884 5885 5886 5886 5887 5887 5887 5887 5887 5887 5886 5886 5886 5886 5886 5885 5884 5883 5882 5881 5881 5881 5880 5879 5879 5878 5877 5875 5874 5872 5870 5869 5869 5868 5868 5867 5867 5866 5865 5865 5865 5865 5864 5863 5862 5862 5861 5861 5861 5860 5860 5859 5859 5858 5857 5856 5855 5855 5854 5853 5852 5851 5851 5850 5849 5849 5848 5848 5847 5846 5845 5844 5843 5843
5861 5864 5866 5869 5871 5873 5875 5877 5879 5880 5882 5883 5884 5885 5886 5886 5886 5886 5887 5886 5886 5886 5886 5886 5886 5886 5885 5884 5883 5882 5882 5882 5881 5881 5880 5879 5878 5877 5876 5874 5873 5871 5869 5869 5869 5868 5868 5867 5866 5865 5865 5864 5864 5863 5862 5862 5861 5861 5861 5861 5860 5860 5860 5859 5858 5857 5856 5855 5854 5853 5852 5852 5850 5850 5849 5848 5848 5847 5847 5846 5845 5844 5844 5843 5842
5860 5863 5865 5868 5870 5872 5874 5876 5878 5879 5881 5882 5883 5884 5885 5885 5886 5886 5886 5886 5885 5885 5885 5885 5885 5885 5885 5884 5883 5882 5882 5882 5882 5882 5881 5880 5879 5877 5876 5875 5874 5872 5870 5870 5869 5869 5868 5867 5865 5865 5864 5864 5864 5863 5862 5861 5860 5860 5860 5860 5860 5860 5859 5859 5858 5857 5856 5855 5854 5853 5852 5851 5850 5848 5848 5847 5846 5846 5846 5845 5844 5844 5843 5842 5842
5859 5862 5865 5867 5868 5870 5873 5875 5876 5878 5880 5881 5882 5883 5884 5885 5885 5885 5885 5885 5885 5885 5885 5885 5885 5885 5884 5884 5883 5882 5882 5883 5883 5883 5882 5881 5879 5878 5876 5875 5874 5872 5871 5870 5869 5868 5868 5867 5865 5865 5864 5863 5863 5863 5862 5861 5860 5860 5860 5860 5859 5859 5859 5858 5857 5856 5855 5854 5853 5852 5851 5850 5849 5847 5847 5847 5846 5845 5845 5844 5843 5843 5842 5842 5841
5858 5861 5864 5865 5867 5869 5871 5873 5875 5877 5878 5880 5881 5882 5883 5884 5884 5885 5885 5885 5884 5884 5884 5885 5885 5885 5884 5883 5882 5882 5883 5883 5883 5883 5882 5881 5879 5878 5877 5876 5875 5873 5872 5871 5870 5868 5867 5867 5866 5864 5863 5863 5863 5862 5862 5861 5860 5860 5860 5859 5859 5859 5858 5858 5857 5856 5855 5853 5852 5851 5850 5849 5848 5846 5846 5846 5845 5844 5844 5843 5843 5842 5841 5841 5840
5857 5859 5861 5863 5865 5868 5870 5872 5874 5875 5877 5878 5879 5880 5882 5882 5883 5884 5884 5884 5884 5884 5884 5884 5885 5884 5883 5882 5882 5882 5883 5883 5883 5883 5882 5881 5880 5878 5877 5876 5875 5873 5872 5871 5870 5868 5867 5866 5865 5864 5863 5862 5862 5862 5861 5860 5860 5859 5859 5859 5859 5858 5858 5857 5856 5855 5854 5853 5851 5850 5848 5848 5847 5846 5845 5845 5844 5844 5843 5842 5842 5841 5841 5840 5839
5854 5856 5858 5861 5863 5866 5868 5870 5872 5873 5874 5876 5877 5879 5880 5881 5882 5883 5883 5883 5883 5883 5883 5884 5884 5884 5883 5882 5882 5882 5883 5884 5884 5883 5882 5881 5880 5879 5877 5876 5875 5874 5873 5871 5870 5868 5867 5866 5865 5865 5864 5863 5862 5862 5861 5860 5859 5859 5859 5858 5858 5858 5857 5856 5855 5854 5853 5852 5850 5849 5847 5847 5846 5845 5844 5844 5843 5843 5842 5841 5841 5840 5840 5839 5838
5850 5853 5855 5858 5862 5864 5866 5868 5870 5871 5872 5874 5876 5877 5879 5880 5881 5882 5882 5882 5883 5883 5883 5884 5884 5884 5882 5881 5882 5882 5883 5884 5884 5883 5882 5881 5880 5879 5877 5876 5875 5874 5873 5872 5870 5868 5866 5866 5865 5864 5864 5863 5862 5861 5861 5860 5859 5859 5858 5858 5858 5857 5856 5855 5854 5853 5852 5851 5849 5848 5847 5846 5845 5844 5843 5843 5843 5842 5841 5840 5840 5839 5839 5838 5837
5847 5850 5853 5857 5860 5862 5864 5866 5867 5869 5870 5872 5874 5875 5877 5879 5880 5881 5882 5882 5882 5882 5883 5883 5884 5883 5882 5881 5881 5882 5883 5883 5884 5883 5882 5881 5880 5879 5877 5876 5874 5874 5873 5872 5870 5868 5866 5866 5865 5864 5864 5863 5862 5861 5861 5860 5860 5859 5858 5858 5857 5856 5855 5854 5853 5852 5851 5850 5849 5847 5846 5845 5844 5844 5843 5842 5842 5841 5840 5839 5839 5838 5837 5837 5836
5845 5848 5851 5854 5858 5860 5861 5864 5865 5867 5868 5870 5872 5874 5876 5877 5878 5880 5881 5881 5882 5882 5883 5883 5884 5883 5881 5881 5881 5882 5883 5883 5883 5883 5882 5882 5880 5878 5876 5875 5874 5873 5872 5871 5870 5868 5866 5866 5865 5864 5864 5863 5861 5861 5861 5861 5860 5859 5858 5857 5856 5855 5854 5853 5852 5851 5850 5849 5848 5847 5845 5844 5843 5843 5842 5841 5841 5840 5839 5838 5838 5837 5836 5836 5835
5843 5846 5849 5852 5855 5857 5859 5862 5864 5865 5867 5868 5870 5872 5874 5876 5877 5878 5879 5880 5880 5881 5882 5883 5883 5882 5881 5881 5881 5882 5883 5883 5883 5883 5882 5882 5880 5878 5876 5875 5874 5873 5872 5871 5870 5868 5867 5866 5865 5865 5863 5862 5861 5862 5862 5861 5861 5860 5858 5857 5855 5854 5853 5852 5851 5850 5849 5848 5847 5846 5844 5843 5843 5842 5841 5841 5840 5839 5838 5838 5837 5836 5836 5835 5834
5841 5844 5847 5849 5852 5855 5857 5860 5862 5863 5866 5867 5869 5871 5873 5874 5876 5877 5878 5878 5879 5880 5881 5882 5882 5882 5881 5881 5881 5882 5882 5883 5882 5883 5883 5882 5880 5878 5875 5875 5874 5873 5872 5870 5869 5867 5867 5866 5865 5864 5863 5862 5862 5862 5862 5862 5861 5860 5858 5856 5855 5853 5852 5851 5849 5849 5848 5847 5846 5845 5844 5843 5841 5841 5840 5840 5839 5838 5837 5837 5836 5835 5835 5834 5833
5839 5842 5845 5847 5850 5853 5855 5858 5860 5861 5864 5866 5867 5869 5871 5873 5874 5875 5876 5877 5878 5879 5880 5881 5881 5881 5881 5881 5882 5882 5882 5882 5882 5882 5882 5881 5879 5878 5876 5874 5873 5873 5871 5870 5868 5867 5866 5866 5865 5864 5863 5863 5863 5863 5862 5862 5860 5858 5857 5855 5854 5852 5851 5849 5848 5847 5847 5846 5845 5844 5843 5842 5840 5840 5839 5839 5838 5837 5836 5836 5835 5834 5834 5833 5832
5838 5840 5842 5845 5848 5850 5852 5854 5857 5859 5862 5864 5866 5867 5869 5871 5872 5873 5874 5875 5877 5878 5879 5880 5880 5880 5880 5881 5881 5881 5882 5882 5882 5882 5881 5880 5879 5877 5875 5873 5872 5872 5871 5870 5868 5867 5866 5866 5865 5864 5864 5864 5863 5862 5861 5860 5858 5857 5855 5854 5853 5851 5850 5848 5847 5846 5846 5845 5844 5843 5842 5841 5839 5839 5838 5837 5837 5836 5835 5835 5834 5834 5833 5832 5831
5836 5838 5841 5843 5845 5847 5848 5851 5854 5857 5860 5862 5864 5865 5867 5869 5870 5872 5873 5874 5876 5877 5878 5879 5879 5879 5879 5880 5881 5881 5882 5882 5881 5881 5880 5880 5878 5876 5875 5873 5871 5870 5870 5869 5867 5866 5866 5866 5865 5865 5864 5863 5862 5861 5860 5858 5857 5855 5854 5852 5851 5850 5849 5847 5846 5845 5845 5844 5843 5842 5841 5840 5838 5837 5837 5836 5836 5835 5834 5834 5833 5833 5832 5831 5830
5833 5836 5839 5841 5842 5844 5846 5849 5852 5855 5857 5860 5861 5863 5865 5866 5868 5870 5871 5873 5874 5876 5877 5878 5878 5878 5878 5879 5880 5881 5881 5881 5881 5881 5880 5879 5877 5875 5874 5873 5871 5870 5869 5868 5867 5866 5866 5865 5865 5864 5863 5862 5860 5859 5858 5857 5855 5854 5853 5851 5850 5848 5848 5846 5845 5844 5844 5843 5842 5841 5839 5838 5837 5836 5836 5835 5834 5834 5833 5832 5832 5831 5831 5830 5829
5831 5834 5836 5838 5840 5842 5844 5847 5850 5853 5855 5857 5858 5861 5863 5864 5867 5868 5869 5871 5873 5874 5875 5876 5877 5877 5877 5878 5879 5881 5881 5880 5880 5880 5879 5878 5877 5876 5875 5873 5871 5869 5868 5868 5867 5866 5865 5864 5863 5862 5861 5860 5859 5858 5857 5855 5854 5853 5851 5850 5848 5847 5847 5846 5845 5844 5843 5842 5841 5840 5838 5837 5836 5835 5834 5834 5833 5832 5831 5831 5830 5830 5830 5829 5828
5828 5830 5833 5835 5838 5840 5842 5844 5847 5850 5852 5854 5855 5858 5860 5861 5865 5867 5867 5869 5871 5873 5874 5875 5876 5876 5876 5877 5878 5880 5880 5879 5879 5878 5878 5878 5877 5876 5874 5872 5870 5868 5867 5867 5866 5865 5864 5863 5862 5861 5860 5859 5858 5857 5856 5854 5853 5852 5851 5849 5847 5846 5846 5845 5844 5843 5842 5841 5840 5839 5837 5836 5835 5834 5833 5832 5832 5831 5830 5829 5829 5829 5828 5828 5827
5824 5827 5830 5833 5834 5836 5838 5841 5844 5847 5849 5851 5852 5854 5857 5859 5863 5865 5866 5867 5869 5871 5873 5874 5875 5875 5876 5876 5877 5879 5878 5878 5877 5877 5877 5877 5876 5875 5873 5871 5869 5867 5866 5866 5865 5864 5863 5861 5861 5860 5859 5858 5857 5856 5855 5854 5853 5851 5850 5848 5846 5845 5844 5844 5843 5841 5840 5839 5839 5838 5836 5835 5834 5833 5831 5831 5830 5829 5828 5828 5828 5827 5827 5826 5825
5821 5824 5826 5828 5829 5830 5833 5837 5840 5843 5845 5847 5848 5851 5854 5856 5860 5863 5864 5866 5868 5870 5872 5873 5874 5874 5875 5875 5876 5877 5877 5876 5876 5876 5876 5876 5875 5874 5872 5869 5867 5866 5865 5864 5863 5862 5861 5860 5860 5859 5858 5857 5856 5855 5855 5854 5852 5851 5849 5847 5845 5844 5843 5842 5841 5840 5839 5838 5837 5836 5835 5834 5833 5831 5830 5829 5828 5828 5827 5827 5826 5826 5825 5824 5824
5818 5820 5822 5824 5825 5825 5830 5834 5837 5840 5842 5844 5845 5847 5850 5853 5858 5861 5863 5865 5866 5868 5870 5872 5872 5873 5873 5874 5875 5875 5875 5875 5875 5875 5875 5875 5874 5872 5870 5868 5866 5865 5864 5863 5862 5861 5861 5860 5859 5858 5857 5856 5855 5855 5854 5853 5851 5850 5848 5846 5845 5843 5842 5841 5840 5839 5838 5836 5834 5834 5833 5832 5831 5830 5828 5828 5827 5826 5826 5825 5825 5824 5823 5822 5822
5814 5817 5819 5821 5822 5824 5828 5833 5835 5836 5837 5841 5842 5844 5847 5851 5855 5859 5860 5862 5864 5866 5869 5870 5871 5871 5872 5873 5873 5874 5874 5874 5874 5874 5874 5873 5873 5871 5869 5866 5865 5864 5863 5862 5862 5861 5860 5859 5858 5857 5856 5855 5855 5854 5853 5852 5850 5849 5847 5845 5844 5842 5841 5840 5839 5838 5837 5835 5833 5832 5831 5830 5829 5828 5827 5826 5826 5825 5824 5823 5822 5822 5821 5821 5820
5812 5814 5816 5818 5820 5823 5826 5829 5832 5833 5834 5837 5838 5840 5844 5847 5852 5855 5857 5859 5861 5863 5866 5868 5869 5870 5870 5871 5872 5872 5872 5872 5873 5873 5872 5872 5871 5869 5867 5865 5864 5863 5862 5862 5862 5861 5859 5858 5857 5856 5856 5855 5854 5853 5852 5851 5849 5848 5846 5845 5843 5842 5840 5839 5837 5836 5835 5834 5832 5831 5830 5829 5828 5827 5825 5825 5824 5824 5823 5821 5820 5820 5819 5819 5818
5808 5812 5813 5815 5817 5820 5823 5826 5828 5830 5831 5833 5835 5837 5840 5844 5848 5852 5854 5857 5859 5861 5864 5866 5867 5868 5869 5870 5870 5870 5870 5871 5871 5871 5871 5870 5869 5867 5865 5864 5864 5863 5861 5861 5861 5861 5859 5857 5856 5856 5855 5854 5853 5852 5851 5849 5848 5847 5845 5844 5842 5841 5839 5837 5836 5835 5833 5832 5831 5830 5829 5827 5827 5825 5824 5823 5823 5822 5821 5820 5819 5818 5818 5817 5816
5805 5809 5811 5812 5815 5817 5820 5823 5825 5827 5829 5830 5832 5835 5837 5840 5844 5849 5851 5854 5857 5859 5862 5865 5866 5866 5867 5868 5868 5868 5869 5869 5870 5870 5869 5868 5867 5866 5864 5863 5863 5862 5861 5861 5860 5860 5859 5857 5856 5855 5854 5853 5852 5851 5850 5848 5847 5846 5844 5843 5841 5839 5838 5836 5834 5833 5832 5831 5830 5828 5827 5826 5825 5824 5823 5822 5821 5821 5820 5819 5817 5816 5816 5815 5815
5803 5806 5808 5810 5812 5814 5817 5820 5822 5824 5826 5828 5830 5832 5834 5837 5841 5845 5848 5851 5855 5857 5860 5863 5864 5864 5865 5866 5866 5866 5867 5868 5868 5868 5868 5867 5866 5864 5863 5862 5861 5861 5861 5860 5859 5859 5858 5857 5856 5855 5854 5853 5852 5850 5849 5847 5846 5845 5843 5842 5840 5838 5836 5834 5833 5832 5830 5829 5828 5826 5825 5824 5823 5822 5821 5820 5819 5819 5818 5817 5815 5813 5813 5813 5813
5800 5803 5806 5808 5809 5811 5814 5816 5819 5821 5824 5826 5828 5830 5831 5834 5839 5843 5845 5849 5852 5855 5859 5861 5861 5862 5863 5864 5864 5865 5865 5866 5867 5867 5866 5865 5864 5863 5862 5861 5860 5860 5860 5859 5859 5858 5857 5856 5855 5854 5853 5852 5851 5849 5848 5846 5845 5844 5842 5841 5839 5837 5835 5833 5832 5830 5828 5827 5826 5825 5823 5822 5821 5820 5819 5819 5818 5817 5816 5815 5814 5812 5811 5811 5811
5797 5800 5803 5805 5806 5808 5811 5813 5815 5818 5821 5823 5825 5827 5829 5831 5836 5841 5842 5845 5849 5853 5855 5857 5858 5860 5861 5861 5862 5863 5864 5865 5866 5865 5864 5863 5862 5861 5860 5860 5859 5859 5858 5858 5857 5857 5856 5855 5854 5853 5852 5851 5850 5848 5847 5845 5844 5843 5841 5840 5838 5836 5833 5831 5829 5827 5826 5825 5824 5823 5822 5821 5820 5819 5818 5817 5816 5816 5815 5814 5813 5812 5810 5809 5809
5794 5797 5800 5802 5804 5805 5807 5809 5812 5816 5818 5821 5823 5825 5827 5829 5834 5838 5839 5842 5846 5849 5850 5853 5856 5858 5859 5859 5860 5861 5862 5863 5864 5864 5863 5862 5861 5860 5859 5858 5858 5857 5857 5856 5856 5856 5855 5854 5853 5852 5851 5850 5848 5847 5846 5844 5843 5841 5840 5838 5837 5835 5832 5830 5827 5825 5824 5823 5822 5821 5820 5819 5818 5817 5817 5816 5815 5815 5814 5813 5812 5810 5809 5807 5807
5790 5793 5797 5800 5801 5803 5805 5807 5810 5813 5816 5818 5820 5822 5825 5827 5831 5835 5837 5839 5843 5845 5847 5850 5854 5855 5856 5857 5858 5859 5860 5861 5862 5862 5862 5861 5860 5859 5858 5857 5856 5856 5855 5855 5854 5854 5854 5853 5852 5851 5850 5849 5847 5846 5845 5843 5842 5840 5838 5837 5835 5834 5832 5829 5826 5824 5822 5821 5820 5819 5818 5817 5817 5816 5815 5814 5814 5813 5812 5812 5811 5810 5808 5806 5805
5783 5787 5792 5796 5797 5800 5802 5805 5808 5812 5813 5815 5818 5820 5822 5824 5828 5832 5834 5836 5840 5842 5844 5848 5851 5853 5854 5855 5856 5857 5859 5859 5860 5860 5860 5860 5858 5857 5856 5856 5855 5855 5854 5854 5853 5852 5852 5851 5850 5850 5849 5848 5846 5845 5844 5843 5841 5839 5837 5835 5834 5832 5830 5828 5826 5823 5821 5820 5819 5818 5817 5816 5815 5814 5813 5812 5811 5810 5809 5810 5810 5809 5807 5805 5804
5779 5782 5785 5790 5794 5797 5800 5803 5806 5809 5812 5814 5816 5818 5820 5822 5825 5828 5831 5833 5836 5839 5841 5845 5848 5850 5852 5853 5854 5855 5856 5857 5858 5859 5859 5858 5857 5856 5855 5854 5854 5854 5853 5853 5852 5851 5850 5849 5849 5848 5847 5846 5845 5844 5843 5841 5840 5838 5836 5834 5832 5831 5828 5826 5824 5823 5820 5818 5817 5816 5815 5814 5813 5813 5812 5810 5809 5808 5808 5808 5807 5807 5805 5803 5802